This demonstration page uses our WeatherBlox Daily Observations layout. Learn more.

38.89511, -77.03637

Hourly Observations for December 9, 2016

Temp ( °F °C ) Dew Point ( °F °C ) Humidity (%) Winds ( mph kmh ) Pressure ( in mb ) Visibility ( mi km ) Precip ( " mm )
12:52 am 00:52 Mostly Clear 33 0.6 14 -10 45 45 NW 12 19 30.22 1023 10 16.0934 0 0
1:52 am 01:52 Clear 33 0.6 13 -10.6 43 43 WNW 13 20 30.23 1024 10 16.0934 0 0
2:52 am 02:52 Clear 32 0 13 -10.6 45 45 NW 18 30 30.24 1024 10 16.0934 0 0
3:52 am 03:52 Clear 31 -0.6 15 -9.4 52 52 WNW 13 20 30.24 1024 10 16.0934 0 0
4:52 am 04:52 Clear 31 -0.6 12 -11.1 45 45 WNW 14 22 30.24 1024 10 16.0934 0 0
5:52 am 05:52 Clear 31 -0.6 13 -10.6 47 47 NW 16 26 30.27 1025 10 16.0934 0 0
6:52 am 06:52 Clear 31 -0.6 13 -10.6 47 47 WNW 18 30 30.28 1025 10 16.0934 0 0
7:52 am 07:52 Sunny 31 -0.6 14 -10 49 49 WNW 14 22 30.29 1026 10 16.0934 0 0
8:52 am 08:52 Sunny 33 0.6 15 -9.4 47 47 WNW 15 24 30.31 1027 10 16.0934 0 0
9:52 am 09:52 Sunny 35 1.7 16 -8.9 46 46 WNW 16 26 30.33 1027 10 16.0934 0 0
10:52 am 10:52 Mostly Sunny 37 2.8 17 -8.3 44 44 WNW 18 30 30.34 1027 10 16.0934 0 0
11:52 am 11:52 Mostly Sunny 39 3.9 17 -8.3 41 41 WNW 15 24 30.33 1027 10 16.0934 0 0
12:52 pm 12:52 Partly Cloudy 39 3.9 17 -8.3 41 41 NW 12 19 30.32 1027 10 16.0934 0 0
1:52 pm 13:52 Partly Cloudy 40 4.4 16 -8.9 38 38 WNW 17 28 30.31 1027 10 16.0934 0 0
2:52 pm 14:52 Partly Cloudy 39 3.9 16 -8.9 39 39 WNW 16 26 30.33 1027 10 16.0934 0 0
3:52 pm 15:52 Partly Cloudy 38 3.3 16 -8.9 41 41 WNW 15 24 30.35 1028 10 16.0934 0 0
4:52 pm 16:52 Mostly Clear 36 2.2 16 -8.9 44 44 WNW 10 17 30.38 1029 10 16.0934 0 0
5:52 pm 17:52 Mostly Clear 35 1.7 17 -8.3 48 48 WNW 12 19 30.4 1029 10 16.0934 0 0
6:52 pm 18:52 Clear 34 1.1 16 -8.9 48 48 WNW 16 26 30.43 1031 10 16.0934 0 0
7:52 pm 19:52 Clear 33 0.6 17 -8.3 52 52 WNW 9 15 30.43 1031 10 16.0934 0 0
8:52 pm 20:52 Clear 32 0 18 -7.8 56 56 WNW 8 13 30.42 1030 10 16.0934 0 0
9:52 pm 21:52 Clear 32 0 17 -8.3 54 54 W 12 19 30.41 1030 10 16.0934 0 0
10:52 pm 22:52 Clear 32 0 17 -8.3 54 54 W 8 13 30.44 1031 10 16.0934 0 0
11:52 pm 23:52 Mostly Clear 31 -0.6 17 -8.3 56 56 W 8 13 30.44 1031 10 16.0934 0 0

Powered by AerisWeather